Location: El Conde
(10.2895°N, 67.2409°W)
Time: 19:38:45
(UTC+00:00)

Cosmos 1862 - Pass Details

Date: 19 May 2024
Orbit: 508 x 526 km, 82.5° (Epoch: 12 June)

Event Time Altitude Azimuth Distance (km) Brightness Sun altitude
Rises 23:34:00 0° 355° (N) 2,603 7.2 -12.2°
Reaches altitude 10° 23:36:07 10° 355° (N) 1,718 6.2 -12.7°
Maximum altitude 23:39:53 87° 267° (W) 512 3.1 -13.5°
Drops below altitude 10° 23:43:39 10° 177° (S) 1,720 5.6 -14.3°
Enters shadow 23:44:45 - 177° (S) 2,178 6.1 -14.6°
